Regional Weather Roundup
Issued by NWS

Home | Current Version | Previous Version | Text Only | Print | Product List | Glossary On
Versions: 1 2 3 4 5 6 7 8 9 10 11 12 13 14 15 16 17 18 19 20 21 22 23 24 25 26 27 28 29 30 31 32 33 34 35 36 37 38 39 40 41 42 43 44 45 46 47 48 49 50
624
ASUS44 KEWX 290111
RWRTX
SOUTH TEXAS REGIONAL WEATHER ROUNDUP
NATIONAL WEATHER SERVICE AUSTIN/SAN ANTONIO TX
800 PM CDT SAT MAY 28 2016

NOTE: "FAIR" INDICATED FEW OR NO CLOUDS BELOW 12,000 FEET WITH NO
SIGNIFICANT WEATHER AND/OR OBSTRUCTIONS TO VISIBILITY.

* - THESE STATIONS ARE NOT NWS OR FAA STATIONS...AND ARE NOT SUBJECT
    TO NWS AND FAA QUALITY CONTROL.

TXZ171-172-183>190-290200-
TEXAS HILL COUNTRY AND EDWARDS PLATEAU

CITY           SKY/WX    TMP DP  RH WIND       PRES   REMARKS
JUNCTION       CLOUDY    67  59  75 NE24G39   29.93R THUNDER
*LLANO         CLOUDY    84  73  70 S6        29.95R HX  91
BURNET         CLOUDY    82  70  66 SE8       29.95R
*HORSESHOE BAY CLOUDY    83  72  68 SE7       29.92R
*KERRVILLE     CLOUDY    83  73  72 SE16      29.93R
*FREDERICKSBRG CLOUDY    81  69  65 SE6       29.96R
*ROCKSPRINGS   CLOUDY    82  70  65 S12       29.96R
*BOERNE STAGE  CLOUDY    81  70  69 SE10G18   29.95R
*CASTROVILLE   LGT RAIN  81  73  75 SE9       29.92R
HONDO          CLOUDY    78  68  71 SE18G26   29.91R
*UVALDE        CLOUDY    85  73  66 E13       29.88R HX  91
DEL RIO        CLOUDY    89  70  53 E12       29.83R HX  94
LAUGHLIN AFB   CLOUDY    88  72  57 SE7       29.84R HX  95
CARRIZO SPRGS  CLEAR     91  70  49 SE9G16    29.81R HX  97
*EAGLE PASS    PTCLDY    90  70  51 E8        29.83S HX  95
$$

TXZ173-191>194-202-209-217>225-228-290200-
CENTRAL AND SOUTH CENTRAL TEXAS

CITY           SKY/WX    TMP DP  RH WIND       PRES   REMARKS
GEORGETOWN     CLEAR     84  70  61 SE5       29.93R
AUSTIN/BERGSTM CLOUDY    85  73  67 SE10      29.92R HX  91
AUSTIN/MABRY   PTCLDY    84  72  67 SE8       29.93R
*AUSTIN/EXEC   CLOUDY    82  73  74 SE9       29.94R
*LAGO VISTA    CLOUDY    82  71  68 SE7       29.95R
SAN MARCOS     CLOUDY    82  73  74 SE12      29.93R
NEW BRAUNFELS  CLOUDY    83  72  69 SE10      29.90R
RANDOLPH AFB   CLOUDY    82  75  78 SE12      29.92R
PT SAN ANTONIO PTCLDY    84  74  72 SE15G24   29.90R HX  92
SAN ANTONIO    CLOUDY    83  72  69 SE16      29.92R
STINSON FIELD  CLOUDY    85  73  67 SE15      29.89R HX  91
*PLEASANTON    CLOUDY    84  72  65 E10G20    29.89R
*LA GRANGE       N/A     83  74  74 SE7       29.93R
*GIDDINGS      PTCLDY    82  72  72 SE7       29.98R
*GONZALES      PTCLDY    83  75  74 SE12      29.92R HX  91
$$

TXZ163>164-176>182-195>201-210>213-226-227-235-290200-
SOUTHEAST TEXAS

CITY           SKY/WX    TMP DP  RH WIND       PRES   REMARKS
COLLEGE STN    CLEAR     83  73  72 SE7       29.94R
*BRYAN         CLEAR     82  73  75 SE6       29.95S
*CALDWELL      CLEAR     82  73  74 SE6       29.97R
*CROCKETT      CLOUDY    82  73  74 SE3       29.99R
*BRENHAM       CLEAR     83  73  70 S3        29.95R
HUNTSVILLE     PTCLDY    86  69  56 SE3       29.96R HX  90
CONROE         CLEAR     82  71  69 E6        29.96R
HOUSTON BUSH   PTCLDY    80  73  79 SE16      29.96R
HOUSTON HOBBY  PTCLDY    82  71  69 SE8       29.96R
*HOUSTON SW AP CLEAR     80  72  76 SE7       29.97S
PEARLAND       CLEAR     84  71  65 SE7       29.98S
HOUSTON HOOKS  PTCLDY    84  71  65 SE8       29.95R
ELLINGTON FLD  PTCLDY    82  77  83 E12       29.99R HX  91
SUGAR LAND     CLEAR     81  71  71 SE14      29.95R
*HOUSTON EXEC  CLEAR     82  73  74 S8        29.96R
*CLEVELAND MUN CLEAR     80  74  82 CALM      29.98S
*WHARTON       CLOUDY    80  72  75 SE8       29.96R
*COLUMBUS      FAIR      81  72  74 SE7       29.95R
*EAGLE LAKE    CLEAR     81  73  77 S7        29.95R
$$

TXZ214>216-236>238-290200-
THE UPPER TEXAS COAST

CITY           SKY/WX    TMP DP  RH WIND       PRES   REMARKS
*ORANGE        CLEAR     81  68  65 S3        30.00S
PORT ARTHUR    CLEAR     79  71  76 S6        29.98S
GALVESTON      PTCLDY    80  74  81 E13       30.00R
ANGLETON       PTCLDY    81  73  76 SE8       29.97R
*BAY CITY      CLOUDY    81  74  79 SE6       29.96S
PALACIOS       CLOUDY    80  73  79 SE10      29.94S
$$

TXZ229>234-239>247-290200-
TEXAS COASTAL BEND AND RIO GRANDE PLAINS

CITY           SKY/WX    TMP DP  RH WIND       PRES   REMARKS
VICTORIA       CLOUDY    81  73  76 SE9       29.93R
*BEEVILLE      CLOUDY    82  76  82 SE10      29.90S
ROCKPORT       PTCLDY    82  74  76 SE13      29.91R
*PORT ARANSAS  CLOUDY    82  77  86 SE9G18    29.91R
*PORT LAVACA   CLOUDY    80  75  86 SE10      29.93R
*INGLESIDE     CLEAR     69  64  81 SE14      29.90S
CORPUS CHRISTI PTCLDY    83  74  74 SE16      29.89S
CORPUS NAS     PTCLDY    82  78  88 SE18      29.90R HX  91
*ROBSTOWN      CLEAR     83  75  76 SE12      29.90R HX  91
ALICE          PTCLDY    82  73  74 SE17G26   29.88R
KINGSVILLE NAS CLEAR     82  76  81 SE13      29.89R
COTULLA        PTCLDY    91  73  55 SE18G26   29.84R HX  99
*FAITH RANCH     N/A    N/A N/A N/A MISG        N/A
LAREDO         CLEAR     91  73  55 SE18      29.83R HX  99
$$

TXZ248>255-290200-
DEEP SOUTH TEXAS

CITY           SKY/WX    TMP DP  RH WIND       PRES   REMARKS
BROWNSVILLE    PTCLDY    82  75  79 SE15      29.90R
PORT ISABEL    PTCLDY    83  76  79 SE16      29.89R HX  91
*SOUTH PADRE     N/A     81  77  89 SE14      29.90R
HARLINGEN      PTCLDY    85  74  69 SE16      29.88R HX  92
*HEBBRONVILLE  CLOUDY    86  73  64 SE13G18   29.89R HX  94
MCALLEN        CLOUDY    88  70  55 SE12G21   29.89R HX  93
*WESLACO       PTCLDY    86  69  56 SE9G22    29.87R HX  91
FALFURRIAS     CLEAR     84  73  69 SE10      29.88R HX  91
EDINBURG       PTCLDY    88  68  52 SE12      29.88R HX  91
*ZAPATA        MOCLDY    90  70  51 SE13G20   29.85R HX  95
$$

TXZ213>215-236>238-242>244-246-247-251-254-255-290200-
CMAN STATIONS

STATION/POSITION TIME  TEMP    WIND        PRES    WAVE
                       AIR SEA DIR/SP/G            HT/PER
                 (UTC) (F)     (DEG/KT/KT) (MB)    (FT/S)
SABINE PASS      0000          140/  7/ 10   N/A
SEA RIM ST PARK  0100   80     130/  6/  7 1016.0
NORTH JETTY/GLS  0000                        N/A
EAGLE POINT      0000          140/ 11/ 13   N/A
MORGANS POINT    0000          120/ 10/ 13   N/A
MISSION/ARANSAS  0000   82                 1013.0
PORT O`CONNOR    0000          140/ 15/ 17   N/A
PORT ARANSAS     0100   81 83  110/ 16/ 18 1013.4
MALAQUITE BEACH  0000          110/ 16/ 19   N/A
BAFFIN BAY       0000          120/ 16/ 19   N/A
PORT ISABEL      0000          170/  4/  7   N/A
$$

GMZ080-GMZ150>470-290200-
OFFSHORE BUOY REPORTS

STATION/POSITION TIME  TEMP    WIND        PRES    WAVE
                       AIR SEA DIR/SP/G            HT/PER
                 (UTC) (F)     (DEG/KT/KT) (MB)    (FT/S)
20 E GALVESTON   0050   81 84  100/ 10/ 12 1015.1    3/ 7
90 E PT ARANSAS  0050   81 81  100/  8/  8 1013.9    5/ 7
35 NE PT MANSFLD 0050   81 81  120/ 16/ 17 1011.9    6/ 8
200 E PT ISABEL  0050                        N/A     4/ 6
$$




USA.gov is the U.S. government's official web portal to all federal, state and local government web resources and services.